• Processing (Info)

  • MPEC 2023-M157 : 2023 MN5

    The following Minor Planet Electronic Circular may be linked-to from your own Web pages, but must not otherwise be redistributed electronically.

    A form allowing access to any MPEC is at the bottom of this page.


    Read MPEC 2023-M156 Read MPEC 2023-M158


    M.P.E.C. 2023-M157                                Issued 2023 June 28, 14:21 UT
    
         The Minor Planet Electronic Circulars contain information on unusual
             minor planets, routine data on comets and natural satellites,
             and occasional editorial announcements.  They are published
        on behalf of Division F of the International Astronomical Union by the
              Minor Planet Center, Smithsonian Astrophysical Observatory,
                              Cambridge, MA 02138, U.S.A.
    			  
                 Prepared using the Tamkin Foundation Computer Network
    
                                  MPC@CFA.HARVARD.EDU
                URL https://www.minorplanetcenter.net/    ISSN 1523-6714
    
                                    2023 MN5                                 
    
    
    Observations:
         K23M05N  C2023 05 29.46136315 50 18.934+53 10 59.31         21.69GVEM157F52
         K23M05N  C2023 05 29.47098515 50 17.930+53 11 00.69         22.45GVEM157F52
         K23M05N  C2023 05 29.48058515 50 16.920+53 11 01.98         22.38GVEM157F52
         K23M05N  C2023 06 07.48427515 35 26.138+52 58 34.37         21.60GVEM157F52
         K23M05N  C2023 06 07.49459815 35 25.097+52 58 31.44         21.65GVEM157F52
         K23M05N  C2023 06 07.49978415 35 24.599+52 58 29.45         21.81GVEM157F51
         K23M05N  C2023 06 07.50480015 35 24.077+52 58 28.06         22.45GVEM157F52
         K23M05N  C2023 06 07.50943215 35 23.591+52 58 26.72         21.89GVEM157F51
         K23M05N  C2023 06 07.51505015 35 23.062+52 58 24.79         22.17GVEM157F52
         K23M05N  C2023 06 07.51905415 35 22.642+52 58 23.42         21.07GVEM157F51
         K23M05N  C2023 06 07.52870615 35 21.695+52 58 20.37         21.09GVEM157F51
         K23M05N  C2023 06 15.22491 15 23 39.85 +51 58 34.3          22.6 GVEM157G96
         K23M05N  C2023 06 15.23061 15 23 39.19 +51 58 29.7          21.6 GVEM157G96
         K23M05N  C2023 06 15.23631 15 23 38.70 +51 58 26.2          22.7 GVEM157G96
         K23M05N  C2023 06 15.24201 15 23 38.25 +51 58 22.0          21.6 GVEM157G96
         K23M05N  C2023 06 16.27267715 22 12.472+51 46 55.53         22.64GVEM157F52
         K23M05N  C2023 06 16.27545915 22 12.208+51 46 53.31         21.47GVEM157F52
         K23M05N*1C2023 06 27.31458915 09 33.937+48 53 29.65         22.04GVEM157G96
         K23M05N 1C2023 06 27.32049915 09 33.646+48 53 22.81         21.01GVEM157G96
         K23M05N 1C2023 06 27.32641115 09 33.433+48 53 15.94         21.12GVEM157G96
         K23M05N 1C2023 06 27.33231415 09 32.958+48 53 08.09         21.47GVEM157G96
         K23M05N KC2023 06 27.37683615 09 30.500+48 52 13.40         21.90GVEM157V06
         K23M05N KC2023 06 27.38056315 09 30.300+48 52 09.20         22.01GVEM157V06
         K23M05N KC2023 06 27.38242615 09 30.190+48 52 06.60               VEM157V06
         K23M05N 1C2023 06 27.39836115 09 29.669+48 51 52.58         21.69GVEM157T12
         K23M05N 1C2023 06 27.40011115 09 29.559+48 51 50.46         21.92GVEM157T12
         K23M05N 1C2023 06 27.40167115 09 29.459+48 51 48.80         21.64GVEM157T12
         K23M05N KC2023 06 28.15720915 08 50.939+48 36 34.45         21.47GVEM157V06
         K23M05N KC2023 06 28.16093315 08 50.730+48 36 30.02         21.64GVEM157V06
         K23M05N KC2023 06 28.16465915 08 50.514+48 36 25.16         22.43GVEM157V06
         K23M05N KC2023 06 28.16838415 08 50.309+48 36 20.63         21.36GVEM157V06
    
    Observer details:
    F51 Pan-STARRS 1, Haleakala.  Observers J. Bulger, K. Chambers, T. Dukes, T.
        Lowe, P. Minguez, A. Schultz, I. Smith.  Measurers S. Chastel, J.
        Fairlamb, M. Huber, Y. Ramanjooloo, R. Wainscoat, R. Weryk.  1.8-m
        Ritchey-Chretien + CCD.
    F52 Pan-STARRS 2, Haleakala.  Observers J. Bulger, K. Chambers, T. Dukes, T.
        Lowe, P. Minguez, A. Schultz, I. Smith.  Measurers S. Chastel, J.
        Fairlamb, M. Huber, Y. Ramanjooloo, R. Wainscoat, R. Weryk.  1.8-m
        Ritchey-Chretien + CCD.
    G96 Mt. Lemmon Survey.  Observers R. A. Kowalski, K. W. Wierzchos.  Measurers
        B. Gray, D. Rankin, F. C. Shelly, E. J. Christensen, D. Fay, J. B.
        Fazekas, D. C. Fuls, A. R. Gibbs, A. D. Grauer, H. Groeller, J. K. Hogan,
        R. A. Kowalski, S. M. Larson, G. J. Leonard, R. L. Seaman, A. Serrano, K.
        W. Wierzchos.  1.5-m reflector + 10K CCD.
    T12 University of Hawaii 88-inch telescope, Maunakea.  Observer J. Fairlamb.
        Measurers R. Weryk, J. Fairlamb, Y. Ramanjooloo, R. Wainscoat.  2.24-m
        University of Hawaii reflector + CCD.
    V06 Catalina Sky Survey-Kuiper.  Observers J. K. Hogan, R. A. Kowalski.
        Measurers E. J. Christensen, D. Fay, J. B. Fazekas, D. C. Fuls, A. R.
        Gibbs, A. D. Grauer, H. Groeller, J. K. Hogan, R. A. Kowalski, S. M.
        Larson, G. J. Leonard, D. Rankin, R. L. Seaman, A. Serrano, F. C. Shelly,
        K. W. Wierzchos.  1.55-m reflector + 1K CCD.
    
    Orbital elements:
    2023 MN5                                            PHA, Earth MOID = 0.0241 AU
    Epoch 2023 Feb. 25.0 TT = JDT 2460000.5                 Prema                   
    M 297.34396              (2000.0)            P               Q                  
    n   0.29338134     Peri.  193.06654     +0.83684027     +0.34996906             
    a   2.2430953      Node   137.39610     -0.42949838     +0.89652941             
    e   0.5411324      Incl.   38.45445     -0.33945471     -0.27158180             
    P   3.36           H   19.50          G   0.15           U   6                  
    Residuals in seconds of arc
    230529 F52  0.1+  0.5-    230615 G96  1.3+  0.4+    230627 V06  0.4-  0.0
    230529 F52  0.1+  0.1-    230615 G96  0.1-  0.5-    230627 V06  0.5-  0.3-
    230529 F52  0.0   0.2+    230615 G96  0.1+  0.4-    230627 T12  0.2+  0.2-
    230607 F52  0.2-  0.1+    230615 G96  0.6+  0.9-    230627 T12  0.2+  0.1-
    230607 F52  0.2-  0.4+    230616 F52  0.0   0.3+    230627 T12  0.0   0.1+
    230607 F51  0.0   0.0     230616 F52  0.2-  0.1-    230628 V06  0.4+  0.2-
    230607 F52  0.1-  0.2+    230627 G96  0.6-  0.1-    230628 V06  0.4+  0.1-
    230607 F51  0.4-  0.3+    230627 G96  0.2-  0.2+    230628 V06  0.3+  0.4-
    230607 F52  0.1-  0.2+    230627 G96  1.0+  0.6+    230628 V06  0.3+  0.3-
    230607 F51  0.2-  0.1+    230627 G96  0.5-  0.1-
    230607 F51  0.1-  0.1+    230627 V06  0.5-  0.3-
    
    Ephemeris:
    2023 MN5                 a,e,i = 2.24, 0.54, 38                  q = 1.0293
    Date    TT    R. A. (2000) Decl.     Delta      r    Elong.  Phase     V
    2023 05 29    15 51 05.0 +53 09 56   1.1170  1.6920   105.1    35.3    22.3
    ...
    2023 06 13    15 26 53.2 +52 20 29   1.0431  1.5814   100.4    39.2    22.1
    ...
    2023 06 21    15 16 08.2 +50 43 51   1.0026  1.5223    97.9    41.4    22.0
    ...
    2023 06 27    15 09 51.5 +48 59 42   0.9711  1.4782    96.1    43.1    22.0
    2023 06 28    15 08 58.9 +48 39 45   0.9658  1.4709    95.8    43.4    21.9
    2023 06 29    15 08 09.2 +48 19 05   0.9604  1.4636    95.5    43.7    21.9
    ...
    2023 07 05    15 04 15.2 +45 59 43   0.9275  1.4200    93.7    45.6    21.8
    ...
    2023 07 13    15 01 54.5 +42 12 39   0.8818  1.3630    91.5    48.2    21.7
    ...
    2023 07 28    15 05 59.7 +32 52 20   0.7928  1.2610    87.5    53.6    21.5
    
    M. P. C. Staff               (C) Copyright 2023 MPC           M.P.E.C. 2023-M157
    


    Read MPEC 2023-M156 Read MPEC 2023-M158


    MPEC number:

    Enter an MPEC number in one of the following forms:

    • 1997-B01 (the full form)
    • J97B01 (the packed version of the full form)
    • B01 (the abbreviated form)